{"data":{"norad_id":67999,"intl_designator":"2026-039P","name":"STARLINK-36926","alt_names":[],"object_type":"PAYLOAD","status":"ACTIVE","operator":null,"country":"US","launch_date":"2026-02-27","launch_site_code":"AFETR","launch_vehicle":null,"mission":null,"orbit_class":"UNKNOWN","rcs_meters":null,"size_class":null,"mass_kg":null,"dimensions":null,"purposes":["comms"],"wikipedia_slug":null,"has_3d_model":false,"image_url":null,"decayed_at":null,"tle_current":{"epoch":"2026-05-24T21:38:28.392864Z","epoch_age_seconds":84315,"freshness":"FRESH","line1":"1 67999U 26039P   26144.90171751  .00014475  00000+0  53422-3 0  9997","line2":"2 67999  43.0028 338.1300 0001179 279.1052  80.9666 15.27596627 13369","mean_motion":15.27596627,"eccentricity":0.0001179,"inclination_deg":43.0028,"raan_deg":338.13,"arg_perigee_deg":279.1052,"mean_anomaly_deg":80.9666,"bstar":0.00053422,"rev_number":1336,"period_min":94.265722674969,"perigee_km":482.19038130085,"apogee_km":483.80823724257,"semimajor_km":6861.1363092717,"source":"CELESTRAK","updated_at":"2026-05-25T13:38:21.781638Z"}}}